Time,TemperatureF,DewpointF,PressureIn,WindDirection,WindDirectionDegrees,WindSpeedMPH,WindSpeedGustMPH,Humidity,HourlyPrecipIn,Conditions,Clouds,dailyrainin,SoftwareType,DateUTC
2013-10-10 00:01:00,46.0,40.5,30.32,SSE,148,1.0,3.0,81,0.00,,,0.00,Wunderground v.1.15,2013-10-10 04:01:00,
2013-10-10 00:02:00,46.1,40.6,30.32,SSE,148,6.0,6.0,81,0.00,,,0.00,Wunderground v.1.15,2013-10-10 04:02:00,
2013-10-10 00:04:00,46.2,40.7,30.32,SSE,148,4.0,6.0,81,0.00,,,0.00,Wunderground v.1.15,2013-10-10 04:04:00,
2013-10-10 00:06:00,46.5,40.7,30.32,SSE,148,3.0,6.0,80,0.00,,,0.00,Wunderground v.1.15,2013-10-10 04:06:00,
2013-10-10 00:12:00,46.8,40.6,30.32,SSE,147,3.0,6.0,79,0.00,,,0.00,Wunderground v.1.15,2013-10-10 04:12:00,
2013-10-10 00:13:00,47.0,40.5,30.32,SSE,147,0.0,6.0,78,0.00,,,0.00,Wunderground v.1.15,2013-10-10 04:13:00,
2013-10-10 00:18:00,47.0,40.2,30.32,SSE,147,0.0,6.0,77,0.00,,,0.00,Wunderground v.1.15,2013-10-10 04:18:00,
2013-10-10 00:24:00,46.4,39.9,30.32,SSE,147,0.0,2.0,78,0.00,,,0.00,Wunderground v.1.15,2013-10-10 04:24:00,
2013-10-10 00:29:00,45.8,39.7,30.32,SSE,147,0.0,2.0,79,0.00,,,0.00,Wunderground v.1.15,2013-10-10 04:29:00,
2013-10-10 00:35:00,45.2,39.4,30.32,SSE,147,0.0,1.0,80,0.00,,,0.00,Wunderground v.1.15,2013-10-10 04:35:00,
2013-10-10 00:40:00,44.5,38.7,30.32,SSE,147,0.0,0.0,80,0.00,,,0.00,Wunderground v.1.15,2013-10-10 04:40:00,
2013-10-10 00:46:00,43.6,38.8,30.32,SSE,147,0.0,0.0,83,0.00,,,0.00,Wunderground v.1.15,2013-10-10 04:46:00,
2013-10-10 00:51:00,43.3,39.1,30.32,SSE,147,0.0,0.0,85,0.00,,,0.00,Wunderground v.1.15,2013-10-10 04:51:00,
2013-10-10 00:56:00,43.2,39.0,30.32,SSE,147,0.0,0.0,85,0.00,,,0.00,Wunderground v.1.15,2013-10-10 04:56:00,
2013-10-10 01:02:00,43.9,40.0,30.32,SSE,147,2.0,2.0,86,0.00,,,0.00,Wunderground v.1.15,2013-10-10 05:02:00,
2013-10-10 01:07:00,44.5,40.0,30.32,SSE,147,2.0,2.0,84,0.00,,,0.00,Wunderground v.1.15,2013-10-10 05:07:00,
2013-10-10 01:12:00,44.6,39.8,30.32,SSE,147,0.0,1.0,83,0.00,,,0.00,Wunderground v.1.15,2013-10-10 05:12:00,
2013-10-10 01:18:00,44.6,39.4,30.32,SSE,147,0.0,1.0,82,0.00,,,0.00,Wunderground v.1.15,2013-10-10 05:18:00,
2013-10-10 01:23:00,44.2,39.1,30.32,SSE,147,0.0,0.0,82,0.00,,,0.00,Wunderground v.1.15,2013-10-10 05:23:00,
2013-10-10 01:28:00,43.9,39.4,30.32,SSE,147,2.0,2.0,84,0.00,,,0.00,Wunderground v.1.15,2013-10-10 05:28:00,
2013-10-10 01:33:00,44.2,38.7,30.31,SSE,147,4.0,4.0,81,0.00,,,0.00,Wunderground v.1.15,2013-10-10 05:33:00,
2013-10-10 01:39:00,44.3,39.2,30.31,SSE,147,4.0,4.0,82,0.00,,,0.00,Wunderground v.1.15,2013-10-10 05:39:00,
2013-10-10 01:44:00,44.3,39.2,30.31,SSE,147,0.0,3.0,82,0.00,,,0.00,Wunderground v.1.15,2013-10-10 05:44:00,
2013-10-10 01:49:00,44.1,39.0,30.31,SSE,147,1.0,4.0,82,0.00,,,0.00,Wunderground v.1.15,2013-10-10 05:49:00,
2013-10-10 01:55:00,44.1,39.3,30.31,SSE,147,1.0,2.0,83,0.00,,,0.00,Wunderground v.1.15,2013-10-10 05:55:00,
2013-10-10 02:01:00,44.1,39.3,30.31,SSE,147,1.0,2.0,83,0.00,,,0.00,Wunderground v.1.15,2013-10-10 06:01:00,
2013-10-10 02:06:00,44.5,39.3,30.31,SSE,147,1.0,3.0,82,0.00,,,0.00,Wunderground v.1.15,2013-10-10 06:06:00,
2013-10-10 02:11:00,44.6,39.4,30.31,SSE,147,0.0,2.0,82,0.00,,,0.00,Wunderground v.1.15,2013-10-10 06:11:00,
2013-10-10 02:16:00,44.1,39.0,30.31,SSE,147,0.0,2.0,82,0.00,,,0.00,Wunderground v.1.15,2013-10-10 06:16:00,
2013-10-10 02:21:00,43.5,38.7,30.31,SSE,147,0.0,0.0,83,0.00,,,0.00,Wunderground v.1.15,2013-10-10 06:21:00,
2013-10-10 02:26:00,43.2,38.4,30.31,SSE,148,0.0,0.0,83,0.00,,,0.00,Wunderground v.1.15,2013-10-10 06:26:00,
2013-10-10 02:31:00,43.1,38.6,30.31,SSE,147,0.0,0.0,84,0.00,,,0.00,Wunderground v.1.15,2013-10-10 06:31:00,
2013-10-10 02:36:00,42.9,38.4,30.31,SSE,147,0.0,0.0,84,0.00,,,0.00,Wunderground v.1.15,2013-10-10 06:36:00,
2013-10-10 02:42:00,42.5,38.3,30.31,SSE,147,0.0,0.0,85,0.00,,,0.00,Wunderground v.1.15,2013-10-10 06:42:00,
2013-10-10 02:47:00,42.3,38.1,30.31,SSE,147,0.0,0.0,85,0.00,,,0.00,Wunderground v.1.15,2013-10-10 06:47:00,
2013-10-10 02:52:00,42.5,38.6,30.31,SSE,147,0.0,3.0,86,0.00,,,0.00,Wunderground v.1.15,2013-10-10 06:52:00,
2013-10-10 02:57:00,42.9,38.7,30.31,SSE,147,0.0,3.0,85,0.00,,,0.00,Wunderground v.1.15,2013-10-10 06:57:00,
2013-10-10 03:02:00,43.1,38.9,30.31,SSE,147,1.0,4.0,85,0.00,,,0.00,Wunderground v.1.15,2013-10-10 07:02:00,
2013-10-10 03:07:00,43.1,38.6,30.31,SSE,147,0.0,4.0,84,0.00,,,0.00,Wunderground v.1.15,2013-10-10 07:07:00,
2013-10-10 03:12:00,43.1,38.6,30.31,SSE,147,0.0,1.0,84,0.00,,,0.00,Wunderground v.1.15,2013-10-10 07:12:00,
2013-10-10 03:17:00,43.1,38.9,30.30,SSE,147,2.0,4.0,85,0.00,,,0.00,Wunderground v.1.15,2013-10-10 07:17:00,
2013-10-10 03:22:00,43.1,38.6,30.30,SSE,147,0.0,0.0,84,0.00,,,0.00,Wunderground v.1.15,2013-10-10 07:22:00,
2013-10-10 03:27:00,43.2,38.7,30.30,SSE,147,3.0,5.0,84,0.00,,,0.00,Wunderground v.1.15,2013-10-10 07:27:00,
2013-10-10 03:32:00,43.2,38.7,30.30,SSE,147,3.0,5.0,84,0.00,,,0.00,Wunderground v.1.15,2013-10-10 07:32:00,
2013-10-10 03:37:00,43.1,38.6,30.30,SSE,147,0.0,5.0,84,0.00,,,0.00,Wunderground v.1.15,2013-10-10 07:37:00,
2013-10-10 03:42:00,42.9,38.4,30.30,SSE,148,2.0,2.0,84,0.00,,,0.00,Wunderground v.1.15,2013-10-10 07:42:00,
2013-10-10 03:47:00,42.9,38.4,30.30,SSE,147,0.0,3.0,84,0.00,,,0.00,Wunderground v.1.15,2013-10-10 07:47:00,
2013-10-10 03:52:00,42.8,38.3,30.30,SSE,147,4.0,4.0,84,0.00,,,0.00,Wunderground v.1.15,2013-10-10 07:52:00,
2013-10-10 03:57:00,42.8,38.3,30.30,SSE,147,0.0,4.0,84,0.00,,,0.00,Wunderground v.1.15,2013-10-10 07:57:00,
2013-10-10 04:02:00,42.6,38.1,30.30,SSE,147,1.0,3.0,84,0.00,,,0.00,Wunderground v.1.15,2013-10-10 08:02:00,
2013-10-10 04:07:00,42.6,38.1,30.30,SSE,147,0.0,3.0,84,0.00,,,0.00,Wunderground v.1.15,2013-10-10 08:07:00,
2013-10-10 04:12:00,42.6,38.4,30.30,SSE,147,0.0,1.0,85,0.00,,,0.00,Wunderground v.1.15,2013-10-10 08:12:00,
2013-10-10 04:17:00,42.5,38.3,30.30,SSE,147,0.0,1.0,85,0.00,,,0.00,Wunderground v.1.15,2013-10-10 08:17:00,
2013-10-10 04:22:00,42.6,38.4,30.30,SSE,147,0.0,1.0,85,0.00,,,0.00,Wunderground v.1.15,2013-10-10 08:22:00,
2013-10-10 04:27:00,42.6,38.4,30.30,SSE,147,0.0,2.0,85,0.00,,,0.00,Wunderground v.1.15,2013-10-10 08:27:00,
2013-10-10 04:32:00,42.6,38.4,30.30,SSE,147,0.0,0.0,85,0.00,,,0.00,Wunderground v.1.15,2013-10-10 08:32:00,
2013-10-10 04:37:00,42.6,38.4,30.30,SSE,147,0.0,1.0,85,0.00,,,0.00,Wunderground v.1.15,2013-10-10 08:37:00,
2013-10-10 04:42:00,42.5,38.0,30.30,SSE,147,0.0,0.0,84,0.00,,,0.00,Wunderground v.1.15,2013-10-10 08:42:00,
2013-10-10 04:47:00,42.5,38.3,30.30,SSE,147,0.0,0.0,85,0.00,,,0.00,Wunderground v.1.15,2013-10-10 08:47:00,
2013-10-10 04:52:00,42.6,38.4,30.30,SSE,147,0.0,2.0,85,0.00,,,0.00,Wunderground v.1.15,2013-10-10 08:52:00,
2013-10-10 04:58:00,42.8,38.3,30.30,SSE,147,0.0,2.0,84,0.00,,,0.00,Wunderground v.1.15,2013-10-10 08:58:00,
2013-10-10 05:03:00,42.6,38.1,30.30,SSE,147,0.0,0.0,84,0.00,,,0.00,Wunderground v.1.15,2013-10-10 09:03:00,
2013-10-10 05:08:00,42.6,38.1,30.30,SSE,147,0.0,0.0,84,0.00,,,0.00,Wunderground v.1.15,2013-10-10 09:08:00,
2013-10-10 05:13:00,42.5,38.0,30.30,SSE,148,0.0,0.0,84,0.00,,,0.00,Wunderground v.1.15,2013-10-10 09:13:00,
2013-10-10 05:19:00,42.1,37.9,30.30,SSE,147,0.0,0.0,85,0.00,,,0.00,Wunderground v.1.15,2013-10-10 09:19:00,
2013-10-10 05:24:00,41.6,37.4,30.30,SSE,147,0.0,0.0,85,0.00,,,0.00,Wunderground v.1.15,2013-10-10 09:24:00,
2013-10-10 05:29:00,41.2,37.3,30.30,SSE,147,0.0,0.0,86,0.00,,,0.00,Wunderground v.1.15,2013-10-10 09:29:00,
2013-10-10 05:34:00,40.8,36.9,30.30,SSE,147,0.0,0.0,86,0.00,,,0.00,Wunderground v.1.15,2013-10-10 09:34:00,
2013-10-10 05:39:00,40.6,37.0,30.30,SSE,147,0.0,0.0,87,0.00,,,0.00,Wunderground v.1.15,2013-10-10 09:39:00,
2013-10-10 05:45:00,40.5,37.2,30.30,SSE,147,0.0,0.0,88,0.00,,,0.00,Wunderground v.1.15,2013-10-10 09:45:00,
2013-10-10 05:50:00,40.5,37.2,30.30,SSE,147,0.0,0.0,88,0.00,,,0.00,Wunderground v.1.15,2013-10-10 09:50:00,
2013-10-10 05:55:00,40.8,37.8,30.30,SSE,147,0.0,0.0,89,0.00,,,0.00,Wunderground v.1.15,2013-10-10 09:55:00,
2013-10-10 06:00:00,41.2,38.2,30.29,SSE,147,0.0,0.0,89,0.00,,,0.00,Wunderground v.1.15,2013-10-10 10:00:00,
2013-10-10 06:05:00,41.3,38.0,30.29,SSE,147,0.0,0.0,88,0.00,,,0.00,Wunderground v.1.15,2013-10-10 10:05:00,
2013-10-10 06:10:00,41.2,37.9,30.29,SSE,147,0.0,0.0,88,0.00,,,0.00,Wunderground v.1.15,2013-10-10 10:10:00,
2013-10-10 06:15:00,40.9,37.6,30.29,SSE,147,0.0,0.0,88,0.00,,,0.00,Wunderground v.1.15,2013-10-10 10:15:00,
2013-10-10 06:21:00,40.6,37.3,30.29,SSE,147,0.0,0.0,88,0.00,,,0.00,Wunderground v.1.15,2013-10-10 10:21:00,
2013-10-10 06:26:00,40.2,36.9,30.29,SSE,147,0.0,0.0,88,0.00,,,0.00,Wunderground v.1.15,2013-10-10 10:26:00,
2013-10-10 06:31:00,39.6,36.6,30.30,SSE,147,0.0,0.0,89,0.00,,,0.00,Wunderground v.1.15,2013-10-10 10:31:00,
2013-10-10 06:36:00,39.3,36.3,30.30,SSE,147,0.0,0.0,89,0.00,,,0.00,Wunderground v.1.15,2013-10-10 10:36:00,
2013-10-10 06:41:00,39.1,36.4,30.30,SSE,148,0.0,0.0,90,0.00,,,0.00,Wunderground v.1.15,2013-10-10 10:41:00,
2013-10-10 06:46:00,38.9,36.2,30.30,SSE,148,0.0,0.0,90,0.00,,,0.00,Wunderground v.1.15,2013-10-10 10:46:00,
2013-10-10 06:51:00,38.9,36.2,30.30,SSE,147,0.0,0.0,90,0.00,,,0.00,Wunderground v.1.15,2013-10-10 10:51:00,
2013-10-10 06:56:00,39.2,36.8,30.30,SSE,147,0.0,0.0,91,0.00,,,0.00,Wunderground v.1.15,2013-10-10 10:56:00,
2013-10-10 07:02:00,39.2,36.8,30.32,SSE,147,0.0,0.0,91,0.00,,,0.00,Wunderground v.1.15,2013-10-10 11:02:00,
2013-10-10 07:07:00,39.3,36.9,30.32,SSE,147,0.0,2.0,91,0.00,,,0.00,Wunderground v.1.15,2013-10-10 11:07:00,
2013-10-10 07:12:00,39.3,36.9,30.32,SSE,148,0.0,1.0,91,0.00,,,0.00,Wunderground v.1.15,2013-10-10 11:12:00,
2013-10-10 07:17:00,39.3,37.2,30.31,SSE,147,0.0,1.0,92,0.00,,,0.00,Wunderground v.1.15,2013-10-10 11:17:00,
2013-10-10 07:22:00,39.8,37.7,30.31,SSE,147,0.0,0.0,92,0.00,,,0.00,Wunderground v.1.15,2013-10-10 11:22:00,
2013-10-10 07:27:00,40.1,38.0,30.31,SSE,147,0.0,0.0,92,0.00,,,0.00,Wunderground v.1.15,2013-10-10 11:27:00,
2013-10-10 07:32:00,40.1,38.2,30.32,SSE,147,0.0,0.0,93,0.00,,,0.00,Wunderground v.1.15,2013-10-10 11:32:00,
2013-10-10 07:37:00,40.1,38.2,30.32,SSE,148,0.0,0.0,93,0.00,,,0.00,Wunderground v.1.15,2013-10-10 11:37:00,
2013-10-10 07:43:00,40.1,38.2,30.32,SSE,147,0.0,0.0,93,0.00,,,0.00,Wunderground v.1.15,2013-10-10 11:43:00,
2013-10-10 07:48:00,40.3,38.4,30.32,SSE,147,0.0,0.0,93,0.00,,,0.00,Wunderground v.1.15,2013-10-10 11:48:00,
2013-10-10 07:53:00,40.5,38.6,30.32,SSE,147,0.0,0.0,93,0.00,,,0.00,Wunderground v.1.15,2013-10-10 11:53:00,
2013-10-10 07:58:00,40.6,38.7,30.32,SSE,147,0.0,0.0,93,0.00,,,0.00,Wunderground v.1.15,2013-10-10 11:58:00,
2013-10-10 08:03:00,41.2,39.6,30.33,SSE,147,0.0,0.0,94,0.00,,,0.00,Wunderground v.1.15,2013-10-10 12:03:00,
2013-10-10 08:08:00,41.8,40.2,30.33,SSE,147,0.0,0.0,94,0.00,,,0.00,Wunderground v.1.15,2013-10-10 12:08:00,
2013-10-10 08:13:00,42.3,40.7,30.33,SSE,147,0.0,0.0,94,0.00,,,0.00,Wunderground v.1.15,2013-10-10 12:13:00,
2013-10-10 08:18:00,42.8,41.2,30.32,SSE,147,0.0,0.0,94,0.00,,,0.00,Wunderground v.1.15,2013-10-10 12:18:00,
2013-10-10 08:23:00,43.6,42.0,30.32,SSE,147,0.0,0.0,94,0.00,,,0.00,Wunderground v.1.15,2013-10-10 12:23:00,
2013-10-10 08:28:00,44.3,42.7,30.32,SSE,147,0.0,0.0,94,0.00,,,0.00,Wunderground v.1.15,2013-10-10 12:28:00,
2013-10-10 08:33:00,45.1,43.2,30.32,SSE,147,0.0,0.0,93,0.00,,,0.00,Wunderground v.1.15,2013-10-10 12:33:00,
2013-10-10 08:39:00,45.7,43.5,30.32,SSE,147,0.0,0.0,92,0.00,,,0.00,Wunderground v.1.15,2013-10-10 12:39:00,
2013-10-10 08:44:00,46.4,43.9,30.32,SSE,147,0.0,0.0,91,0.00,,,0.00,Wunderground v.1.15,2013-10-10 12:44:00,
2013-10-10 08:49:00,46.8,43.7,30.32,SSE,148,0.0,0.0,89,0.00,,,0.00,Wunderground v.1.15,2013-10-10 12:49:00,
2013-10-10 08:54:00,47.4,43.7,30.32,SSE,147,0.0,1.0,87,0.00,,,0.00,Wunderground v.1.15,2013-10-10 12:54:00,
2013-10-10 08:59:00,48.2,44.2,30.32,SSE,148,0.0,1.0,86,0.00,,,0.00,Wunderground v.1.15,2013-10-10 12:59:00,
2013-10-10 09:04:00,48.9,44.6,30.32,SSE,147,0.0,0.0,85,0.00,,,0.00,Wunderground v.1.15,2013-10-10 13:04:00,
2013-10-10 09:09:00,49.6,44.6,30.32,SSE,148,0.0,0.0,83,0.00,,,0.00,Wunderground v.1.15,2013-10-10 13:09:00,
2013-10-10 09:14:00,50.1,44.8,30.31,SSE,148,0.0,4.0,82,0.00,,,0.00,Wunderground v.1.15,2013-10-10 13:14:00,
2013-10-10 09:19:00,50.1,45.1,30.31,SSE,148,0.0,4.0,83,0.00,,,0.00,Wunderground v.1.15,2013-10-10 13:19:00,
2013-10-10 09:24:00,49.9,44.6,30.31,SSE,148,0.0,3.0,82,0.00,,,0.00,Wunderground v.1.15,2013-10-10 13:24:00,
2013-10-10 09:29:00,49.2,43.9,30.31,SSE,148,0.0,3.0,82,0.00,,,0.00,Wunderground v.1.15,2013-10-10 13:29:00,
2013-10-10 09:34:00,48.9,43.3,30.31,SSE,148,0.0,1.0,81,0.00,,,0.00,Wunderground v.1.15,2013-10-10 13:34:00,
2013-10-10 09:39:00,49.2,43.6,30.31,SSE,148,0.0,1.0,81,0.00,,,0.00,Wunderground v.1.15,2013-10-10 13:39:00,
2013-10-10 09:44:00,50.1,44.2,30.31,SSE,148,0.0,0.0,80,0.00,,,0.00,Wunderground v.1.15,2013-10-10 13:44:00,
2013-10-10 09:49:00,51.0,44.0,30.31,SSE,148,0.0,0.0,77,0.00,,,0.00,Wunderground v.1.15,2013-10-10 13:49:00,
2013-10-10 09:54:00,52.0,44.7,30.31,SSE,148,0.0,0.0,76,0.00,,,0.00,Wunderground v.1.15,2013-10-10 13:54:00,
2013-10-10 09:59:00,52.5,44.4,30.30,SSE,148,0.0,0.0,74,0.00,,,0.00,Wunderground v.1.15,2013-10-10 13:59:00,
2013-10-10 10:04:00,52.8,44.0,30.30,SSE,148,0.0,0.0,72,0.00,,,0.00,Wunderground v.1.15,2013-10-10 14:04:00,
2013-10-10 10:09:00,53.1,44.7,30.30,SSE,148,0.0,0.0,73,0.00,,,0.00,Wunderground v.1.15,2013-10-10 14:09:00,
2013-10-10 10:14:00,53.6,45.2,30.30,SSE,148,0.0,0.0,73,0.00,,,0.00,Wunderground v.1.15,2013-10-10 14:14:00,
2013-10-10 10:19:00,54.8,45.9,30.30,SSE,148,0.0,1.0,72,0.00,,,0.00,Wunderground v.1.15,2013-10-10 14:19:00,
2013-10-10 10:24:00,54.7,45.5,30.30,SSE,148,0.0,0.0,71,0.00,,,0.00,Wunderground v.1.15,2013-10-10 14:24:00,
2013-10-10 10:29:00,55.4,45.4,30.29,SSE,148,3.0,4.0,69,0.00,,,0.00,Wunderground v.1.15,2013-10-10 14:29:00,
2013-10-10 10:34:00,55.3,44.9,30.29,SSE,150,0.0,3.0,68,0.00,,,0.00,Wunderground v.1.15,2013-10-10 14:34:00,
2013-10-10 10:39:00,55.4,44.6,30.29,SSE,150,2.0,3.0,67,0.00,,,0.00,Wunderground v.1.15,2013-10-10 14:39:00,
2013-10-10 10:44:00,55.9,45.1,30.29,SSE,150,0.0,2.0,67,0.00,,,0.00,Wunderground v.1.15,2013-10-10 14:44:00,
2013-10-10 10:50:00,55.9,44.3,30.29,SSE,150,0.0,1.0,65,0.00,,,0.00,Wunderground v.1.15,2013-10-10 14:50:00,
2013-10-10 10:55:00,56.2,44.6,30.29,SSE,153,4.0,4.0,65,0.00,,,0.00,Wunderground v.1.15,2013-10-10 14:55:00,
2013-10-10 11:00:00,55.7,44.9,30.29,SSE,163,0.0,4.0,67,0.00,,,0.00,Wunderground v.1.15,2013-10-10 15:00:00,
2013-10-10 11:05:00,55.4,45.0,30.29,SSE,165,0.0,3.0,68,0.00,,,0.00,Wunderground v.1.15,2013-10-10 15:05:00,
2013-10-10 11:10:00,55.3,44.9,30.29,SSE,165,2.0,2.0,68,0.00,,,0.00,Wunderground v.1.15,2013-10-10 15:10:00,
2013-10-10 11:15:00,55.7,44.5,30.29,South,169,2.0,3.0,66,0.00,,,0.00,Wunderground v.1.15,2013-10-10 15:15:00,
2013-10-10 11:20:00,55.7,44.5,30.29,South,170,0.0,3.0,66,0.00,,,0.00,Wunderground v.1.15,2013-10-10 15:20:00,
2013-10-10 11:25:00,57.0,46.9,30.29,South,170,0.0,1.0,69,0.00,,,0.00,Wunderground v.1.15,2013-10-10 15:25:00,
2013-10-10 11:30:00,58.4,47.5,30.29,South,170,0.0,0.0,67,0.00,,,0.00,Wunderground v.1.15,2013-10-10 15:30:00,
2013-10-10 11:35:00,59.2,47.0,30.29,South,175,0.0,4.0,64,0.00,,,0.00,Wunderground v.1.15,2013-10-10 15:35:00,
2013-10-10 11:40:00,59.5,46.5,30.29,South,175,0.0,0.0,62,0.00,,,0.00,Wunderground v.1.15,2013-10-10 15:40:00,
2013-10-10 11:45:00,59.0,45.6,30.28,South,175,0.0,3.0,61,0.00,,,0.00,Wunderground v.1.15,2013-10-10 15:45:00,
2013-10-10 11:50:00,58.6,45.6,30.28,South,180,0.0,1.0,62,0.00,,,0.00,Wunderground v.1.15,2013-10-10 15:50:00,
2013-10-10 11:55:00,58.3,43.6,30.28,South,180,0.0,2.0,58,0.00,,,0.00,Wunderground v.1.15,2013-10-10 15:55:00,
2013-10-10 12:00:00,58.3,45.3,30.28,South,180,0.0,0.0,62,0.00,,,0.00,Wunderground v.1.15,2013-10-10 16:00:00,
2013-10-10 12:05:00,58.3,44.5,30.28,South,180,0.0,3.0,60,0.00,,,0.00,Wunderground v.1.15,2013-10-10 16:05:00,
2013-10-10 12:10:00,57.8,44.4,30.28,South,180,0.0,1.0,61,0.00,,,0.00,Wunderground v.1.15,2013-10-10 16:10:00,
2013-10-10 12:15:00,58.0,45.5,30.28,South,180,0.0,3.0,63,0.00,,,0.00,Wunderground v.1.15,2013-10-10 16:15:00,
2013-10-10 12:20:00,58.6,45.2,30.28,South,180,2.0,3.0,61,0.00,,,0.00,Wunderground v.1.15,2013-10-10 16:20:00,
2013-10-10 12:25:00,58.7,44.8,30.28,South,180,0.0,3.0,60,0.00,,,0.00,Wunderground v.1.15,2013-10-10 16:25:00,
2013-10-10 12:30:00,59.0,44.7,30.27,South,180,0.0,0.0,59,0.00,,,0.00,Wunderground v.1.15,2013-10-10 16:30:00,
2013-10-10 12:35:00,58.7,44.4,30.27,South,180,0.0,4.0,59,0.00,,,0.00,Wunderground v.1.15,2013-10-10 16:35:00,
2013-10-10 12:40:00,58.9,45.0,30.27,South,180,0.0,1.0,60,0.00,,,0.00,Wunderground v.1.15,2013-10-10 16:40:00,
2013-10-10 12:45:00,59.3,45.4,30.27,South,180,0.0,1.0,60,0.00,,,0.00,Wunderground v.1.15,2013-10-10 16:45:00,
2013-10-10 12:50:00,59.5,43.8,30.27,South,180,1.0,1.0,56,0.00,,,0.00,Wunderground v.1.15,2013-10-10 16:50:00,
2013-10-10 12:55:00,59.8,44.1,30.27,South,180,0.0,3.0,56,0.00,,,0.00,Wunderground v.1.15,2013-10-10 16:55:00,
2013-10-10 13:01:00,59.6,44.8,30.27,South,189,3.0,4.0,58,0.00,,,0.00,Wunderground v.1.15,2013-10-10 17:01:00,
2013-10-10 13:06:00,59.2,44.4,30.27,South,191,2.0,4.0,58,0.00,,,0.00,Wunderground v.1.15,2013-10-10 17:06:00,
2013-10-10 13:11:00,59.2,44.9,30.27,SSW,192,0.0,1.0,59,0.00,,,0.00,Wunderground v.1.15,2013-10-10 17:11:00,
2013-10-10 13:16:00,59.2,45.3,30.26,SSW,192,0.0,2.0,60,0.00,,,0.00,Wunderground v.1.15,2013-10-10 17:16:00,
2013-10-10 13:21:00,59.3,45.4,30.26,SSW,192,0.0,0.0,60,0.00,,,0.00,Wunderground v.1.15,2013-10-10 17:21:00,
2013-10-10 13:26:00,59.5,44.7,30.26,SSW,192,0.0,4.0,58,0.00,,,0.00,Wunderground v.1.15,2013-10-10 17:26:00,
2013-10-10 13:31:00,59.5,45.2,30.25,SSW,192,0.0,2.0,59,0.00,,,0.00,Wunderground v.1.15,2013-10-10 17:31:00,
2013-10-10 13:36:00,59.5,44.7,30.25,SSW,192,0.0,4.0,58,0.00,,,0.00,Wunderground v.1.15,2013-10-10 17:36:00,
2013-10-10 13:41:00,59.6,45.7,30.25,SSW,192,4.0,4.0,60,0.00,,,0.00,Wunderground v.1.15,2013-10-10 17:41:00,
2013-10-10 13:46:00,59.8,45.4,30.25,SSW,192,2.0,4.0,59,0.00,,,0.00,Wunderground v.1.15,2013-10-10 17:46:00,
2013-10-10 13:51:00,59.8,45.9,30.25,SSW,192,0.0,1.0,60,0.00,,,0.00,Wunderground v.1.15,2013-10-10 17:51:00,
2013-10-10 13:56:00,60.2,45.8,30.25,SSW,194,4.0,4.0,59,0.00,,,0.00,Wunderground v.1.15,2013-10-10 17:56:00,
2013-10-10 14:01:00,60.4,46.4,30.25,SSW,194,0.0,1.0,60,0.00,,,0.00,Wunderground v.1.15,2013-10-10 18:01:00,
2013-10-10 14:06:00,60.7,45.8,30.25,SSW,195,0.0,3.0,58,0.00,,,0.00,Wunderground v.1.15,2013-10-10 18:06:00,
2013-10-10 14:11:00,60.7,45.8,30.25,SSW,205,1.0,5.0,58,0.00,,,0.00,Wunderground v.1.15,2013-10-10 18:11:00,
2013-10-10 14:16:00,61.0,46.6,30.24,SSW,205,0.0,5.0,59,0.00,,,0.00,Wunderground v.1.15,2013-10-10 18:16:00,
2013-10-10 14:21:00,61.6,47.1,30.24,SSW,205,0.0,0.0,59,0.00,,,0.00,Wunderground v.1.15,2013-10-10 18:21:00,
2013-10-10 14:26:00,62.3,47.3,30.24,SSW,205,0.0,0.0,58,0.00,,,0.00,Wunderground v.1.15,2013-10-10 18:26:00,
2013-10-10 14:31:00,62.4,46.5,30.24,SSW,205,0.0,0.0,56,0.00,,,0.00,Wunderground v.1.15,2013-10-10 18:31:00,
2013-10-10 14:36:00,62.4,46.5,30.24,SSW,205,0.0,0.0,56,0.00,,,0.00,Wunderground v.1.15,2013-10-10 18:36:00,
2013-10-10 14:41:00,62.3,47.8,30.24,SSW,205,0.0,1.0,59,0.00,,,0.00,Wunderground v.1.15,2013-10-10 18:41:00,
2013-10-10 14:46:00,61.8,47.3,30.23,SSW,205,0.0,2.0,59,0.00,,,0.00,Wunderground v.1.15,2013-10-10 18:46:00,
2013-10-10 14:51:00,61.5,46.6,30.23,SSW,205,0.0,0.0,58,0.00,,,0.00,Wunderground v.1.15,2013-10-10 18:51:00,
2013-10-10 14:56:00,61.3,45.9,30.23,SSW,205,0.0,1.0,57,0.00,,,0.00,Wunderground v.1.15,2013-10-10 18:56:00,
2013-10-10 15:01:00,61.5,44.7,30.23,SSW,205,0.0,0.0,54,0.00,,,0.00,Wunderground v.1.15,2013-10-10 19:01:00,
2013-10-10 15:06:00,61.6,45.3,30.23,SSW,205,0.0,0.0,55,0.00,,,0.00,Wunderground v.1.15,2013-10-10 19:06:00,
2013-10-10 15:11:00,62.1,46.2,30.23,SSW,205,0.0,0.0,56,0.00,,,0.00,Wunderground v.1.15,2013-10-10 19:11:00,
2013-10-10 15:17:00,62.7,45.3,30.22,SSW,205,0.0,0.0,53,0.00,,,0.00,Wunderground v.1.15,2013-10-10 19:17:00,
2013-10-10 15:22:00,63.4,47.4,30.22,SSW,205,0.0,0.0,56,0.00,,,0.00,Wunderground v.1.15,2013-10-10 19:22:00,
2013-10-10 15:27:00,63.4,47.4,30.22,SSW,205,0.0,0.0,56,0.00,,,0.00,Wunderground v.1.15,2013-10-10 19:27:00,
2013-10-10 15:32:00,63.7,48.2,30.22,SSW,205,0.0,0.0,57,0.00,,,0.00,Wunderground v.1.15,2013-10-10 19:32:00,
2013-10-10 15:37:00,63.5,47.0,30.22,SSW,205,0.0,1.0,55,0.00,,,0.00,Wunderground v.1.15,2013-10-10 19:37:00,
2013-10-10 15:42:00,63.5,47.5,30.22,SSW,205,0.0,0.0,56,0.00,,,0.00,Wunderground v.1.15,2013-10-10 19:42:00,
2013-10-10 15:47:00,63.5,47.0,30.22,SSW,205,0.0,0.0,55,0.00,,,0.00,Wunderground v.1.15,2013-10-10 19:47:00,
2013-10-10 15:52:00,63.5,47.5,30.22,SSW,205,0.0,0.0,56,0.00,,,0.00,Wunderground v.1.15,2013-10-10 19:52:00,
2013-10-10 15:57:00,63.5,47.5,30.22,SSW,205,0.0,0.0,56,0.00,,,0.00,Wunderground v.1.15,2013-10-10 19:57:00,
2013-10-10 16:02:00,63.5,48.0,30.22,SSW,205,0.0,0.0,57,0.00,,,0.00,Wunderground v.1.15,2013-10-10 20:02:00,
2013-10-10 16:07:00,63.5,47.5,30.22,SSW,205,0.0,1.0,56,0.00,,,0.00,Wunderground v.1.15,2013-10-10 20:07:00,
2013-10-10 16:12:00,63.4,47.4,30.22,SSW,205,0.0,1.0,56,0.00,,,0.00,Wunderground v.1.15,2013-10-10 20:12:00,
2013-10-10 16:17:00,63.2,46.8,30.21,SSW,205,0.0,1.0,55,0.00,,,0.00,Wunderground v.1.15,2013-10-10 20:17:00,
2013-10-10 16:22:00,63.1,47.1,30.21,SSW,205,0.0,0.0,56,0.00,,,0.00,Wunderground v.1.15,2013-10-10 20:22:00,
2013-10-10 16:27:00,63.1,47.6,30.21,SSW,205,0.0,0.0,57,0.00,,,0.00,Wunderground v.1.15,2013-10-10 20:27:00,
2013-10-10 16:31:00,63.2,48.2,30.21,SSW,205,0.0,0.0,58,0.00,,,0.00,Wunderground v.1.15,2013-10-10 20:31:00,
2013-10-10 16:36:00,63.2,48.2,30.21,SSW,205,0.0,0.0,58,0.00,,,0.00,Wunderground v.1.15,2013-10-10 20:36:00,
2013-10-10 16:41:00,63.2,48.2,30.21,SSW,205,0.0,0.0,58,0.00,,,0.00,Wunderground v.1.15,2013-10-10 20:41:00,
2013-10-10 16:46:00,63.2,48.2,30.21,SSW,205,0.0,0.0,58,0.00,,,0.00,Wunderground v.1.15,2013-10-10 20:46:00,
2013-10-10 16:51:00,63.4,49.7,30.21,SSW,205,0.0,0.0,61,0.00,,,0.00,Wunderground v.1.15,2013-10-10 20:51:00,
2013-10-10 16:56:00,63.2,48.2,30.21,SSW,205,0.0,0.0,58,0.00,,,0.00,Wunderground v.1.15,2013-10-10 20:56:00,
2013-10-10 17:01:00,63.4,49.7,30.21,SSW,205,0.0,0.0,61,0.00,,,0.00,Wunderground v.1.15,2013-10-10 21:01:00,
2013-10-10 17:06:00,63.4,48.8,30.21,SSW,205,0.0,0.0,59,0.00,,,0.00,Wunderground v.1.15,2013-10-10 21:06:00,
2013-10-10 17:11:00,63.4,49.3,30.21,SSW,205,0.0,0.0,60,0.00,,,0.00,Wunderground v.1.15,2013-10-10 21:11:00,
2013-10-10 17:16:00,63.2,50.0,30.20,SSW,205,0.0,0.0,62,0.00,,,0.00,Wunderground v.1.15,2013-10-10 21:16:00,
2013-10-10 17:21:00,63.1,49.9,30.20,SSW,205,0.0,0.0,62,0.00,,,0.00,Wunderground v.1.15,2013-10-10 21:21:00,
2013-10-10 17:26:00,62.6,49.8,30.20,SSW,205,0.0,3.0,63,0.00,,,0.00,Wunderground v.1.15,2013-10-10 21:26:00,
2013-10-10 17:31:00,61.8,49.5,30.20,SSW,210,0.0,0.0,64,0.00,,,0.00,Wunderground v.1.15,2013-10-10 21:31:00,
2013-10-10 17:36:00,61.0,49.6,30.20,SSW,210,0.0,1.0,66,0.00,,,0.00,Wunderground v.1.15,2013-10-10 21:36:00,
2013-10-10 17:41:00,60.5,49.9,30.20,SSW,210,0.0,0.0,68,0.00,,,0.00,Wunderground v.1.15,2013-10-10 21:41:00,
2013-10-10 17:46:00,60.1,49.5,30.20,SSW,210,0.0,0.0,68,0.00,,,0.00,Wunderground v.1.15,2013-10-10 21:46:00,
2013-10-10 17:51:00,59.6,48.6,30.20,SSW,210,0.0,0.0,67,0.00,,,0.00,Wunderground v.1.15,2013-10-10 21:51:00,
2013-10-10 17:56:00,59.0,48.1,30.20,SSW,210,0.0,0.0,67,0.00,,,0.00,Wunderground v.1.15,2013-10-10 21:56:00,
2013-10-10 18:01:00,58.7,47.4,30.19,SSW,210,0.0,1.0,66,0.00,,,0.00,Wunderground v.1.15,2013-10-10 22:01:00,
2013-10-10 18:06:00,58.3,47.0,30.19,SSW,210,0.0,1.0,66,0.00,,,0.00,Wunderground v.1.15,2013-10-10 22:06:00,
2013-10-10 18:11:00,58.0,47.5,30.19,SSW,210,0.0,0.0,68,0.00,,,0.00,Wunderground v.1.15,2013-10-10 22:11:00,
2013-10-10 18:16:00,57.5,47.4,30.19,SSW,210,0.0,0.0,69,0.00,,,0.00,Wunderground v.1.15,2013-10-10 22:16:00,
2013-10-10 18:21:00,57.0,46.9,30.19,SSW,210,0.0,0.0,69,0.00,,,0.00,Wunderground v.1.15,2013-10-10 22:21:00,
2013-10-10 18:26:00,56.6,47.3,30.19,SSW,210,0.0,0.0,71,0.00,,,0.00,Wunderground v.1.15,2013-10-10 22:26:00,
2013-10-10 18:31:00,56.2,46.9,30.19,SSW,211,0.0,0.0,71,0.00,,,0.00,Wunderground v.1.15,2013-10-10 22:31:00,
2013-10-10 18:36:00,55.7,47.2,30.19,SSW,210,0.0,0.0,73,0.00,,,0.00,Wunderground v.1.15,2013-10-10 22:36:00,
2013-10-10 18:41:00,55.3,47.5,30.19,SSW,210,0.0,0.0,75,0.00,,,0.00,Wunderground v.1.15,2013-10-10 22:41:00,
2013-10-10 18:46:00,54.8,47.4,30.19,SSW,210,0.0,0.0,76,0.00,,,0.00,Wunderground v.1.15,2013-10-10 22:46:00,
2013-10-10 18:51:00,54.5,47.4,30.19,SSW,210,0.0,0.0,77,0.00,,,0.00,Wunderground v.1.15,2013-10-10 22:51:00,
2013-10-10 18:56:00,54.4,47.3,30.19,SSW,211,0.0,0.0,77,0.00,,,0.00,Wunderground v.1.15,2013-10-10 22:56:00,
2013-10-10 19:01:00,54.1,47.7,30.19,SSW,210,0.0,0.0,79,0.00,,,0.00,Wunderground v.1.15,2013-10-10 23:01:00,
2013-10-10 19:06:00,53.8,47.4,30.19,SSW,210,0.0,0.0,79,0.00,,,0.00,Wunderground v.1.15,2013-10-10 23:06:00,
2013-10-10 19:12:00,53.5,47.5,30.19,SSW,210,0.0,0.0,80,0.00,,,0.00,Wunderground v.1.15,2013-10-10 23:12:00,
2013-10-10 19:17:00,53.3,47.3,30.19,SSW,210,0.0,0.0,80,0.00,,,0.00,Wunderground v.1.15,2013-10-10 23:17:00,
2013-10-10 19:22:00,53.2,47.5,30.19,SSW,210,0.0,0.0,81,0.00,,,0.00,Wunderground v.1.15,2013-10-10 23:22:00,
2013-10-10 19:27:00,52.8,47.1,30.19,SSW,210,0.0,0.0,81,0.00,,,0.00,Wunderground v.1.15,2013-10-10 23:27:00,
2013-10-10 19:32:00,52.2,46.9,30.19,SSW,210,0.0,0.0,82,0.00,,,0.00,Wunderground v.1.15,2013-10-10 23:32:00,
2013-10-10 19:37:00,51.9,46.9,30.19,SSW,210,0.0,0.0,83,0.00,,,0.00,Wunderground v.1.15,2013-10-10 23:37:00,
2013-10-10 19:42:00,51.4,46.7,30.19,SSW,210,0.0,0.0,84,0.00,,,0.00,Wunderground v.1.15,2013-10-10 23:42:00,
2013-10-10 19:47:00,51.0,46.6,30.19,SSW,210,0.0,0.0,85,0.00,,,0.00,Wunderground v.1.15,2013-10-10 23:47:00,
2013-10-10 19:52:00,50.5,46.5,30.19,SSW,210,0.0,1.0,86,0.00,,,0.00,Wunderground v.1.15,2013-10-10 23:52:00,
2013-10-10 19:57:00,50.5,46.8,30.19,SSW,210,0.0,1.0,87,0.00,,,0.00,Wunderground v.1.15,2013-10-10 23:57:00,
2013-10-10 20:02:00,50.5,46.8,30.19,SSW,210,0.0,0.0,87,0.00,,,0.00,Wunderground v.1.15,2013-10-11 00:02:00,
2013-10-10 20:07:00,50.5,46.8,30.19,SSW,210,0.0,0.0,87,0.00,,,0.00,Wunderground v.1.15,2013-10-11 00:07:00,
2013-10-10 20:12:00,50.4,46.7,30.19,SSW,210,0.0,0.0,87,0.00,,,0.00,Wunderground v.1.15,2013-10-11 00:12:00,
2013-10-10 20:17:00,50.5,46.8,30.19,SSW,210,0.0,0.0,87,0.00,,,0.00,Wunderground v.1.15,2013-10-11 00:17:00,
2013-10-10 20:22:00,50.2,46.5,30.19,SSW,210,0.0,0.0,87,0.00,,,0.00,Wunderground v.1.15,2013-10-11 00:22:00,
2013-10-10 20:28:00,50.1,46.4,30.19,SSW,210,0.0,0.0,87,0.00,,,0.00,Wunderground v.1.15,2013-10-11 00:28:00,
2013-10-10 20:33:00,49.8,46.1,30.19,SSW,211,0.0,0.0,87,0.00,,,0.00,Wunderground v.1.15,2013-10-11 00:33:00,
2013-10-10 20:38:00,49.5,45.8,30.19,SSW,210,0.0,0.0,87,0.00,,,0.00,Wunderground v.1.15,2013-10-11 00:38:00,
2013-10-10 20:43:00,49.1,45.7,30.19,SSW,210,0.0,0.0,88,0.00,,,0.00,Wunderground v.1.15,2013-10-11 00:43:00,
2013-10-10 20:48:00,48.8,45.7,30.19,SSW,210,0.0,0.0,89,0.00,,,0.00,Wunderground v.1.15,2013-10-11 00:48:00,
2013-10-10 20:53:00,49.2,46.4,30.19,SSW,210,2.0,3.0,90,0.00,,,0.00,Wunderground v.1.15,2013-10-11 00:53:00,
2013-10-10 20:58:00,50.2,47.7,30.19,SSW,205,3.0,6.0,91,0.00,,,0.00,Wunderground v.1.15,2013-10-11 00:58:00,
2013-10-10 21:04:00,50.7,47.9,30.19,SSW,198,0.0,6.0,90,0.00,,,0.00,Wunderground v.1.15,2013-10-11 01:04:00,
2013-10-10 21:09:00,50.7,47.9,30.19,SSW,198,1.0,6.0,90,0.00,,,0.00,Wunderground v.1.15,2013-10-11 01:09:00,
2013-10-10 21:14:00,50.7,47.9,30.19,SSW,198,0.0,2.0,90,0.00,,,0.00,Wunderground v.1.15,2013-10-11 01:14:00,
2013-10-10 21:19:00,50.5,47.7,30.19,SSW,198,0.0,2.0,90,0.00,,,0.00,Wunderground v.1.15,2013-10-11 01:19:00,
2013-10-10 21:24:00,50.7,47.9,30.19,SSW,198,0.0,4.0,90,0.00,,,0.00,Wunderground v.1.15,2013-10-11 01:24:00,
2013-10-10 21:29:00,50.8,48.0,30.19,SSW,198,0.0,4.0,90,0.00,,,0.00,Wunderground v.1.15,2013-10-11 01:29:00,
2013-10-10 21:34:00,50.5,47.4,30.19,SSW,198,0.0,1.0,89,0.00,,,0.00,Wunderground v.1.15,2013-10-11 01:34:00,
2013-10-10 21:39:00,50.1,47.0,30.19,SSW,198,0.0,1.0,89,0.00,,,0.00,Wunderground v.1.15,2013-10-11 01:39:00,
2013-10-10 21:44:00,49.9,47.1,30.19,SSW,198,0.0,0.0,90,0.00,,,0.00,Wunderground v.1.15,2013-10-11 01:44:00,
2013-10-10 21:49:00,49.6,46.5,30.19,SSW,198,0.0,0.0,89,0.00,,,0.00,Wunderground v.1.15,2013-10-11 01:49:00,
2013-10-10 21:54:00,49.1,46.0,30.19,SSW,198,0.0,0.0,89,0.00,,,0.00,Wunderground v.1.15,2013-10-11 01:54:00,
2013-10-10 21:59:00,48.6,45.8,30.19,SSW,198,0.0,1.0,90,0.00,,,0.00,Wunderground v.1.15,2013-10-11 01:59:00,
2013-10-10 22:05:00,48.5,46.0,30.19,SSW,198,0.0,0.0,91,0.00,,,0.00,Wunderground v.1.15,2013-10-11 02:05:00,
2013-10-10 22:10:00,48.3,45.8,30.19,SSW,198,0.0,0.0,91,0.00,,,0.00,Wunderground v.1.15,2013-10-11 02:10:00,
2013-10-10 22:15:00,48.3,45.8,30.19,SSW,198,0.0,0.0,91,0.00,,,0.00,Wunderground v.1.15,2013-10-11 02:15:00,
2013-10-10 22:20:00,48.3,46.1,30.19,SSW,198,0.0,0.0,92,0.00,,,0.00,Wunderground v.1.15,2013-10-11 02:20:00,
2013-10-10 22:25:00,48.2,46.0,30.19,SSW,198,0.0,0.0,92,0.00,,,0.00,Wunderground v.1.15,2013-10-11 02:25:00,
2013-10-10 22:30:00,48.2,46.0,30.19,SSW,198,0.0,0.0,92,0.00,,,0.00,Wunderground v.1.15,2013-10-11 02:30:00,
2013-10-10 22:35:00,48.2,46.3,30.19,SSW,198,0.0,0.0,93,0.00,,,0.00,Wunderground v.1.15,2013-10-11 02:35:00,
2013-10-10 22:40:00,48.3,46.4,30.19,SSW,198,0.0,0.0,93,0.00,,,0.00,Wunderground v.1.15,2013-10-11 02:40:00,
2013-10-10 22:45:00,48.3,46.4,30.19,SSW,198,1.0,2.0,93,0.00,,,0.00,Wunderground v.1.15,2013-10-11 02:45:00,
2013-10-10 22:50:00,48.6,46.7,30.19,SSW,198,0.0,0.0,93,0.00,,,0.00,Wunderground v.1.15,2013-10-11 02:50:00,
2013-10-10 22:56:00,48.5,46.6,30.19,SSW,198,0.0,3.0,93,0.00,,,0.00,Wunderground v.1.15,2013-10-11 02:56:00,
2013-10-10 23:01:00,48.6,46.7,30.19,SSW,198,0.0,1.0,93,0.00,,,0.00,Wunderground v.1.15,2013-10-11 03:01:00,
2013-10-10 23:06:00,48.8,46.9,30.19,SSW,198,0.0,2.0,93,0.00,,,0.00,Wunderground v.1.15,2013-10-11 03:06:00,
2013-10-10 23:11:00,49.1,47.2,30.19,SSW,198,3.0,3.0,93,0.00,,,0.00,Wunderground v.1.15,2013-10-11 03:11:00,
2013-10-10 23:16:00,49.5,47.6,30.19,SSW,198,0.0,3.0,93,0.00,,,0.00,Wunderground v.1.15,2013-10-11 03:16:00,
2013-10-10 23:21:00,49.5,47.3,30.19,SSW,198,0.0,0.0,92,0.00,,,0.00,Wunderground v.1.15,2013-10-11 03:21:00,
2013-10-10 23:26:00,49.4,47.2,30.19,SSW,198,0.0,0.0,92,0.00,,,0.00,Wunderground v.1.15,2013-10-11 03:26:00,
2013-10-10 23:31:00,49.2,46.7,30.19,SSW,198,0.0,1.0,91,0.00,,,0.00,Wunderground v.1.15,2013-10-11 03:31:00,
2013-10-10 23:36:00,49.1,46.9,30.19,SSW,198,0.0,1.0,92,0.00,,,0.00,Wunderground v.1.15,2013-10-11 03:36:00,
2013-10-10 23:41:00,48.8,46.3,30.19,SSW,198,0.0,0.0,91,0.00,,,0.00,Wunderground v.1.15,2013-10-11 03:41:00,
2013-10-10 23:46:00,48.3,45.8,30.18,SSW,198,0.0,0.0,91,0.00,,,0.00,Wunderground v.1.15,2013-10-11 03:46:00,
2013-10-10 23:51:00,48.2,46.0,30.18,SSW,198,0.0,0.0,92,0.00,,,0.00,Wunderground v.1.15,2013-10-11 03:51:00,
2013-10-10 23:56:00,48.2,46.0,30.18,SSW,198,0.0,0.0,92,0.00,,,0.00,Wunderground v.1.15,2013-10-11 03:56:00,